GFSSGP_925_temp_021.txt.gz
Temp
26 26 25 24 24 25 27 29 32 33 34 35 36 35 35 33 33 29 32 33 32 31 30 29 28 28 28 27 26 26 25 25 24 23 22 22 21 20 20 19 19 18 18 18 18 18 18 18 18
26 25 24 24 25 26 26 31 32 32 34 35 36 36 34 32 33 32 30 33 33 32 30 28 28 28 27 27 27 26 25 25 24 23 22 22 21 20 20 19 19 17 17 18 18 18 18 18 18
25 24 24 25 25 26 27 32 30 31 32 36 35 37 36 33 33 33 33 32 31 30 28 27 27 27 27 27 26 26 25 24 24 23 22 21 20 20 19 19 18 18 17 18 18 18 18 18 18
24 25 25 25 26 29 30 32 30 29 31 33 35 35 34 35 34 34 32 32 31 30 29 29 28 27 27 27 26 25 25 24 24 23 23 22 21 20 20 19 18 18 18 18 18 18 18 18 18
24 23 23 25 27 30 32 34 29 29 32 33 35 34 32 33 34 34 32 33 33 30 29 29 28 27 27 27 26 25 25 24 24 23 23 22 21 21 20 19 18 18 17 17 18 18 18 18 18
23 24 24 25 28 31 33 34 35 34 35 35 35 34 32 35 34 34 34 32 33 32 30 29 29 28 27 26 26 25 25 24 24 23 23 22 22 21 20 19 19 18 17 18 17 17 17 17 18
23 23 24 26 28 31 33 35 35 35 34 34 35 34 31 32 35 35 35 35 30 32 32 29 29 28 28 27 26 25 25 24 24 23 23 22 22 21 21 20 19 19 19 18 19 18 18 17 17
25 24 25 25 27 29 33 34 34 35 36 36 36 33 33 32 35 35 35 36 36 30 31 30 28 27 27 27 26 25 25 24 24 23 23 22 22 21 21 21 20 19 19 19 19 18 18 18 17
27 22 22 25 27 30 33 33 34 36 35 35 34 34 34 35 36 35 35 35 36 31 30 29 28 27 26 27 26 26 25 24 23 23 22 21 21 21 21 20 20 20 19 19 19 18 18 18 17
25 22 24 27 28 29 31 32 33 34 33 33 34 33 34 35 35 33 33 32 35 36 29 30 28 28 26 25 24 25 25 24 22 22 22 21 21 21 21 20 20 20 20 19 19 19 19 18 17
26 25 27 28 30 30 31 32 34 33 32 33 32 33 33 33 34 33 33 34 35 35 33 28 29 28 25 23 23 23 24 24 22 21 22 21 21 21 21 20 21 21 20 19 19 19 19 19 18
25 27 28 28 29 30 30 32 32 32 31 32 33 33 33 32 32 32 32 34 35 35 35 29 30 28 25 24 23 24 24 23 22 22 22 21 21 21 20 20 21 20 20 20 19 19 19 19 19
26 27 28 29 29 30 31 31 31 32 33 33 33 33 31 30 30 32 34 35 35 34 35 33 30 27 26 24 24 24 23 23 23 23 22 21 21 20 21 21 21 20 20 19 19 19 19 19 19
27 27 28 29 29 30 30 31 31 32 32 32 33 32 31 30 30 31 32 34 34 34 34 33 31 29 26 25 25 24 23 23 23 23 22 21 21 21 21 21 20 20 20 20 19 19 19 19 19
26 26 28 28 29 29 31 30 31 32 32 32 32 32 31 31 31 29 33 33 33 34 34 33 32 30 27 26 25 25 24 24 23 23 22 22 21 21 21 21 20 20 20 19 19 18 18 18 18
24 25 24 27 29 30 29 28 31 31 32 30 32 33 32 30 29 32 33 32 34 34 34 34 32 30 28 26 26 25 25 24 24 23 23 22 21 21 21 20 20 20 19 18 18 18 18 18 18
23 22 23 25 28 29 28 28 30 31 31 31 31 32 32 31 29 31 32 35 35 34 34 33 32 31 29 27 26 26 25 25 24 24 23 22 21 21 21 20 20 19 19 18 17 17 17 17 17
22 23 24 25 27 29 28 28 30 31 31 31 31 31 31 29 28 31 34 34 34 34 34 33 30 29 27 25 25 25 25 24 24 23 22 22 22 22 21 20 19 19 18 17 17 16 17 17 17
24 24 25 26 28 28 28 28 29 30 29 29 29 29 29 30 28 30 31 33 33 32 32 30 29 26 24 24 24 24 23 24 24 22 23 22 22 21 20 21 20 18 18 17 17 17 17 16 17
23 23 24 26 28 27 28 28 29 30 30 30 30 27 27 27 28 28 30 32 31 30 29 28 27 24 23 22 23 23 23 23 23 23 23 22 21 21 21 20 19 18 18 18 17 17 17 17 17
22 23 23 24 26 27 27 26 27 28 29 29 29 28 27 26 26 26 27 27 26 26 26 26 25 23 22 22 23 23 23 23 23 23 23 22 22 21 20 19 19 18 17 17 16 16 16 16 17
21 25 25 25 25 23 26 24 26 28 29 30 30 29 30 29 30 28 27 22 24 24 25 25 23 23 22 23 23 23 22 21 22 23 22 21 21 20 20 19 18 17 17 16 16 16 16 16 16
23 25 25 25 24 24 25 23 27 26 27 27 28 27 26 26 26 26 25 22 22 24 23 23 23 23 23 23 23 23 23 23 23 22 22 21 20 19 19 18 18 17 17 16 16 16 16 16 16
24 24 24 24 23 22 25 25 26 26 27 28 28 28 29 28 27 25 22 22 22 23 22 22 22 22 23 23 23 23 23 23 21 21 20 20 19 19 18 18 18 17 17 16 16 16 16 16 16
22 21 19 20 21 21 25 24 26 26 27 29 28 28 28 25 23 23 22 21 21 20 21 21 22 22 22 23 23 23 22 22 21 21 20 20 19 18 18 17 18 17 17 17 17 17 17 17 16
20 21 20 18 20 22 25 24 26 28 29 28 29 28 25 23 23 22 21 21 21 20 20 21 21 21 22 22 22 21 21 21 21 21 20 19 19 18 18 18 18 17 17 17 17 17 17 17 17
21 20 23 21 23 23 24 26 27 29 29 28 29 27 24 23 23 22 21 21 21 20 20 21 21 21 21 22 21 21 21 21 20 19 19 19 19 18 18 18 18 18 18 18 17 17 17 17 18
21 23 21 22 20 20 24 25 25 27 28 29 27 26 24 23 23 22 21 21 21 21 21 21 21 21 21 21 21 21 20 20 20 19 19 19 18 18 18 18 18 18 18 18 18 17 17 17 18
19 20 21 22 21 21 21 24 27 28 29 27 26 26 25 24 23 22 22 21 21 21 21 21 21 21 22 21 21 22 21 20 20 19 19 19 19 19 19 19 18 19 18 18 17 17 17 18 18
18 17 21 20 21 23 22 24 28 28 27 27 26 26 25 24 24 23 22 22 21 21 21 22 22 22 22 22 22 22 21 20 19 19 19 19 19 19 19 19 19 19 18 18 17 17 17 18 17

GFSSGP_925_temp_024.txt.gz
Temp
24 25 25 24 24 23 24 27 29 30 32 32 33 33 32 31 30 28 30 32 31 31 29 27 27 28 28 27 27 26 25 25 24 23 23 22 22 21 20 20 20 19 19 19 18 18 18 18 18
24 25 24 23 24 24 25 28 30 32 32 32 33 33 31 31 31 28 28 30 32 31 29 28 28 28 28 27 27 26 25 24 24 23 23 22 21 21 20 20 19 18 18 18 18 18 18 17 17
24 25 23 23 23 24 26 30 31 31 32 33 33 34 32 31 31 29 31 31 31 30 29 29 28 28 28 27 27 26 26 24 24 23 23 22 21 21 20 20 19 18 17 18 18 18 18 18 18
24 23 22 23 24 26 28 30 31 30 32 33 34 33 33 32 32 33 32 32 31 31 30 29 29 28 28 27 27 26 26 25 24 24 23 22 22 21 21 20 19 19 18 18 18 18 18 18 18
24 21 22 23 25 27 30 31 31 30 32 32 34 33 31 32 34 34 33 32 31 30 30 29 29 28 28 27 27 26 26 25 25 24 23 22 22 21 21 20 19 19 18 18 17 18 18 18 18
22 22 22 23 25 28 29 31 31 30 31 32 32 31 30 32 32 32 33 33 32 32 30 29 29 29 28 27 27 26 26 26 25 24 23 23 22 21 21 20 20 19 18 18 17 18 18 18 18
22 20 22 24 26 27 30 31 32 32 32 33 33 30 31 31 32 33 33 33 33 31 30 29 29 28 28 27 27 26 26 25 25 24 23 23 22 21 20 20 20 19 18 18 18 18 18 18 18
22 21 23 23 25 26 31 30 31 32 33 35 33 30 30 31 33 30 32 30 31 30 29 29 29 28 27 27 27 26 26 25 25 24 24 23 22 21 21 21 20 20 19 19 19 19 18 18 17
24 21 20 24 26 27 29 30 32 34 33 33 33 32 33 35 35 33 33 30 29 28 30 28 28 28 27 26 26 25 25 25 24 24 24 23 22 21 21 21 20 20 20 20 19 19 18 18 17
22 20 22 25 27 27 28 29 30 31 31 32 33 33 35 35 33 31 30 30 28 28 27 27 28 27 25 24 24 24 24 24 23 23 23 22 22 21 21 21 20 20 20 19 19 19 19 18 18
23 23 24 26 27 27 27 29 30 29 29 30 32 32 32 33 31 30 32 34 34 31 30 29 29 28 25 23 23 23 23 23 22 22 22 22 21 21 21 20 20 20 20 19 19 19 19 19 18
23 25 25 26 27 27 27 29 29 29 29 30 30 30 32 31 29 28 29 33 34 35 31 31 29 27 26 23 24 23 22 23 21 21 21 22 21 20 21 20 20 20 20 20 19 19 19 19 19
23 24 26 26 26 27 28 28 28 28 30 31 30 30 30 28 28 30 31 33 35 34 32 31 29 27 27 23 23 22 22 22 21 21 21 21 21 21 21 20 20 20 20 19 19 19 19 19 19
23 23 24 26 26 27 27 28 28 29 30 31 31 29 29 28 27 29 31 31 32 34 34 30 29 29 25 23 24 23 22 22 21 21 22 22 21 21 21 20 20 20 20 20 19 19 19 18 19
23 21 23 24 25 26 28 27 27 29 30 30 30 30 29 28 28 27 31 31 33 34 33 33 31 29 26 25 24 22 22 21 21 22 22 22 22 21 21 21 21 20 19 19 19 18 18 18 18
22 22 22 24 25 26 26 25 28 29 29 29 30 31 31 29 29 31 32 32 33 32 32 33 31 29 27 25 24 23 22 22 21 22 22 22 22 21 21 21 20 20 19 19 18 18 18 18 18
19 20 21 23 25 26 26 26 28 29 29 27 27 28 29 30 29 29 32 33 33 34 33 32 30 31 29 25 24 22 22 22 22 22 22 22 22 21 21 20 20 20 19 19 18 18 17 17 17
18 20 22 22 24 25 26 26 27 28 28 29 29 29 29 29 28 29 31 33 32 33 33 32 31 30 27 24 22 22 23 22 23 22 22 22 21 21 21 20 20 20 19 18 18 17 17 17 17
21 21 21 23 24 24 25 25 26 27 27 25 26 27 28 28 28 28 28 30 31 31 30 30 29 28 25 22 23 22 22 22 22 22 22 22 21 21 20 20 20 19 18 18 18 17 17 16 17
19 19 20 21 24 24 24 25 26 27 28 28 28 27 27 27 25 25 27 30 31 33 32 30 28 27 24 23 23 22 22 22 22 22 22 21 21 21 20 20 20 19 18 18 17 17 16 16 16
19 19 20 20 22 24 23 23 24 25 25 26 25 26 25 24 24 25 25 26 26 27 29 29 27 24 23 23 22 23 23 21 21 21 21 21 21 21 20 20 19 19 18 17 17 16 16 16 16
18 21 21 21 21 20 24 22 24 25 26 26 26 25 25 27 24 24 25 23 23 25 25 24 23 22 22 22 23 22 21 21 22 22 21 21 20 20 20 20 19 18 17 17 16 16 16 16 15
19 21 21 22 20 20 22 20 24 24 25 26 26 25 24 24 25 24 24 21 22 23 22 22 21 21 22 23 23 23 22 22 23 22 21 20 20 20 20 19 18 18 17 17 16 16 16 15 15
21 21 21 21 19 18 21 21 22 24 25 25 25 26 26 25 24 23 20 20 19 21 21 21 21 21 22 22 22 22 22 22 22 21 20 20 20 19 19 18 18 18 17 16 16 16 16 16 15
19 18 16 16 17 19 22 21 23 23 24 26 26 26 27 24 22 19 18 18 18 19 19 20 21 21 22 22 22 22 22 22 21 20 20 19 19 19 18 17 17 18 17 17 17 16 16 16 16
17 16 15 16 16 19 23 20 21 25 27 28 28 27 23 20 19 18 18 18 18 18 19 20 20 20 21 21 21 22 21 21 20 20 20 20 19 19 18 17 17 17 17 17 17 17 17 17 17
17 17 19 18 20 18 20 22 23 25 26 27 27 23 20 19 18 18 18 18 18 18 19 20 20 21 21 21 21 21 21 20 20 19 19 19 19 18 18 18 17 17 17 17 17 17 17 17 17
17 19 17 16 17 17 19 21 22 25 25 26 25 22 19 19 19 18 18 18 18 18 19 20 21 21 21 21 21 20 20 20 19 19 19 19 18 18 18 18 18 18 18 17 17 17 17 17 17
16 17 17 17 17 18 18 19 22 23 25 26 23 22 20 20 19 19 18 18 18 19 19 20 20 20 20 21 20 20 20 20 19 19 19 18 18 19 18 18 18 18 18 18 18 18 17 18 18
16 15 15 14 16 18 19 21 25 24 25 25 23 22 21 20 19 19 19 18 19 18 19 20 20 21 21 21 21 20 20 19 19 19 18 18 19 18 19 19 18 18 18 18 17 17 17 17 17

GFSSGP_925_temp_030.txt.gz
Temp
23 23 23 22 22 20 22 24 26 28 30 30 29 29 29 29 28 27 27 30 30 30 29 28 27 27 27 27 26 25 25 25 25 25 24 24 23 23 23 22 22 21 20 19 18 19 19 19 18
23 23 22 21 22 22 23 24 27 27 30 28 29 29 30 30 29 29 28 28 30 30 29 29 27 27 27 26 26 26 25 25 25 25 24 24 23 23 22 22 22 21 20 19 19 18 18 18 18
23 23 22 22 21 21 24 26 27 29 28 29 30 30 30 31 29 28 30 31 30 30 30 29 28 27 27 26 26 26 26 25 25 25 25 24 23 23 22 22 22 21 19 18 18 18 18 18 17
22 21 20 21 22 23 24 28 27 27 29 29 30 31 30 30 29 32 32 31 31 30 29 29 28 28 27 27 26 26 26 25 25 25 25 24 23 22 22 21 21 21 20 18 18 18 18 17 17
22 20 21 21 22 24 24 25 27 27 28 29 31 31 30 30 31 32 33 32 32 30 29 29 29 28 27 27 26 26 26 25 25 25 24 23 23 22 21 21 20 19 18 18 18 18 18 18 17
21 19 19 22 23 26 25 26 28 28 28 29 30 29 30 31 30 30 30 31 30 30 29 28 29 28 27 27 26 26 26 26 25 25 24 23 22 22 21 21 20 19 18 18 18 18 18 18 18
20 19 21 22 24 25 26 27 28 29 29 29 30 30 29 30 30 31 30 30 29 28 28 26 27 27 27 26 26 26 26 26 25 25 24 23 22 22 21 21 21 19 18 19 18 18 18 18 18
19 19 21 21 24 25 27 28 30 30 30 31 31 29 30 30 31 29 28 27 27 27 27 28 27 26 25 25 26 26 26 25 25 24 24 24 23 22 21 21 20 20 19 19 18 18 18 18 17
20 19 19 22 23 25 27 26 29 29 30 30 31 30 31 31 31 29 28 27 26 26 26 27 27 26 25 24 24 25 25 25 25 24 24 23 22 22 21 21 20 20 20 19 19 19 19 18 18
20 17 20 22 24 25 26 26 26 28 26 28 29 30 32 32 31 28 26 26 27 27 28 27 26 26 25 23 23 23 24 24 24 24 23 22 22 22 22 21 20 20 20 19 19 19 19 18 18
19 21 23 23 25 25 25 25 26 26 26 27 27 28 28 28 28 27 26 27 29 30 28 28 28 27 26 24 23 22 23 23 23 23 22 22 22 22 21 21 20 20 20 19 19 19 18 18 18
19 21 23 23 24 25 25 25 25 25 25 26 26 26 26 26 24 24 25 28 30 30 31 31 29 27 26 23 23 22 22 23 22 22 22 21 21 21 20 20 21 20 20 19 19 19 18 18 19
20 21 21 23 24 24 25 24 24 25 26 26 27 27 25 24 24 27 29 30 30 29 31 31 30 29 27 23 22 22 22 22 22 21 21 21 20 21 21 20 21 20 20 19 19 19 18 19 19
20 21 21 22 22 23 24 24 24 25 25 25 26 25 25 24 24 26 26 27 29 30 31 32 31 30 27 25 23 23 20 20 21 21 21 20 20 21 21 21 20 20 20 19 19 19 19 19 18
19 20 20 20 20 22 23 23 23 25 26 26 26 26 26 26 25 24 28 28 30 31 31 30 30 29 28 26 24 22 21 21 21 20 20 19 19 20 21 21 20 20 20 19 19 19 18 18 18
19 19 19 22 20 22 23 23 26 25 26 26 26 26 26 25 24 26 28 28 30 30 30 30 29 28 28 26 24 22 21 21 20 19 19 18 18 20 21 20 19 20 19 18 18 19 18 18 18
16 19 17 20 21 22 23 23 24 26 25 24 24 24 24 24 23 24 27 29 30 31 31 31 29 29 28 26 23 22 21 21 20 18 18 17 18 20 20 20 20 20 19 18 18 18 18 18 18
16 15 19 19 21 22 21 22 24 24 24 25 23 23 23 22 22 25 28 30 30 31 31 30 29 28 26 23 21 20 20 19 19 18 18 18 19 19 20 20 20 19 19 19 18 18 18 17 17
17 17 18 19 20 21 21 22 22 22 22 23 24 24 25 25 25 25 27 29 30 30 29 29 28 28 23 20 19 18 18 18 18 18 19 19 19 20 19 19 19 18 19 19 19 18 16 15 16
16 16 16 18 19 19 19 19 19 20 21 22 23 23 22 22 21 22 25 27 27 28 29 29 28 25 23 21 20 20 18 17 17 19 19 19 19 18 19 20 19 19 19 18 18 16 15 15 15
16 16 16 17 18 20 18 19 20 20 20 22 22 22 23 22 21 22 23 23 27 26 28 29 28 25 23 21 20 20 18 17 17 18 19 18 19 20 20 20 19 19 19 18 17 17 15 15 14
14 17 18 18 17 17 19 17 19 21 21 21 21 22 22 20 21 21 21 21 24 28 27 28 24 24 22 21 20 20 18 17 18 19 19 19 19 20 20 19 19 19 19 18 17 16 16 15 14
16 18 17 17 16 16 17 15 20 21 20 20 22 23 23 22 20 20 21 22 25 25 25 24 22 21 20 20 21 20 19 19 19 19 19 19 19 19 19 19 19 19 18 18 17 16 15 15 15
17 16 16 16 15 14 16 16 19 20 21 21 21 21 21 21 20 19 19 20 20 20 18 18 19 19 19 20 21 21 20 19 18 18 20 21 19 19 19 19 19 18 18 17 17 16 15 15 15
16 13 11 12 12 15 17 16 20 19 20 21 20 20 20 19 19 19 19 17 16 18 17 17 18 18 19 20 20 21 21 20 20 20 20 18 18 18 18 18 18 18 17 17 17 16 16 16 15
13 13 11 14 14 15 18 16 18 20 21 21 21 20 19 19 19 18 17 16 18 18 17 17 18 18 19 20 20 20 21 21 21 20 20 19 19 18 18 18 17 17 17 17 16 16 16 16 15
15 13 15 14 15 14 15 17 19 22 21 21 21 21 20 19 18 17 16 18 17 17 17 18 18 18 19 19 20 20 20 20 20 19 19 19 18 18 18 17 17 17 17 17 16 16 16 16 16
16 16 14 12 14 14 15 16 18 20 20 22 20 19 19 19 16 17 17 17 16 16 17 18 18 19 19 20 20 20 20 20 20 19 18 18 18 18 18 17 17 17 17 16 16 17 16 16 16
14 14 14 13 12 14 15 15 17 20 20 20 19 20 19 16 17 17 17 16 15 16 17 17 18 18 19 20 20 20 19 19 19 19 19 19 18 18 17 17 17 17 17 17 17 16 16 15 15
14 14 14 12 14 14 13 15 18 19 18 18 19 18 15 16 17 17 17 16 16 15 16 16 17 18 19 20 20 19 19 19 19 19 18 18 18 18 18 18 18 17 17 17 17 16 16 15 15

GFSSGP_925_temp_033.txt.gz
Temp
22 22 22 24 27 26 28 29 29 31 31 32 32 32 33 34 33 33 28 27 31 30 29 27 28 27 26 26 26 25 25 25 25 24 24 24 23 23 23 22 22 22 22 21 21 20 20 19 19
22 22 23 25 27 28 31 29 29 32 32 32 32 32 32 34 33 33 30 28 31 31 29 28 28 27 26 26 26 25 26 25 25 24 25 24 24 23 23 22 22 21 21 20 19 19 19 19 19
23 22 26 27 27 28 30 29 31 31 31 31 33 33 33 34 32 32 30 31 31 30 29 29 29 28 27 27 26 26 25 25 25 24 24 24 23 23 23 22 22 21 19 19 19 18 18 18 18
23 24 25 26 27 27 28 30 29 30 32 31 32 33 33 31 32 32 32 32 32 29 29 29 29 28 27 27 26 26 25 25 25 25 24 24 24 23 23 22 22 20 18 18 18 18 18 18 18
22 24 26 25 26 27 28 29 30 31 31 32 32 33 33 32 30 30 32 32 32 30 29 29 29 28 27 27 26 26 26 25 25 25 24 24 23 23 23 22 21 20 19 18 18 18 18 18 17
24 24 25 26 26 27 29 30 30 31 32 32 32 32 33 30 30 30 31 32 30 30 28 27 28 28 27 27 26 26 26 25 24 24 24 23 23 23 23 22 21 20 19 19 18 18 18 18 18
25 24 26 26 26 27 30 31 31 32 32 32 32 32 33 32 29 29 27 26 27 27 27 27 25 26 27 26 26 26 26 25 24 24 24 23 23 23 22 22 21 21 20 19 19 19 18 18 18
25 25 25 26 26 27 29 30 31 32 32 33 32 32 32 32 28 26 26 25 25 24 24 25 24 22 23 22 25 26 26 25 25 24 24 23 23 22 22 21 21 21 20 19 19 19 18 18 18
23 24 25 26 25 27 28 29 31 31 31 31 32 33 32 29 27 28 27 27 26 25 26 26 26 24 22 22 21 24 25 25 25 24 23 23 20 20 19 20 21 21 20 20 19 19 19 18 18
24 24 25 26 27 27 29 28 29 30 30 30 31 31 30 31 31 31 31 31 28 27 26 27 26 26 23 22 21 21 21 20 20 20 20 20 19 19 19 20 21 21 20 20 19 19 19 18 19
24 24 26 26 27 27 28 28 29 29 29 31 31 29 30 31 31 30 31 31 30 30 27 27 27 27 25 21 21 21 21 20 20 20 19 19 19 19 19 19 19 19 19 19 19 18 18 19 18
23 24 25 26 26 26 27 28 28 29 29 29 29 28 28 29 30 31 30 31 30 28 30 28 28 27 26 23 22 21 21 20 20 20 19 19 18 19 19 19 19 18 19 19 19 19 19 18 18
22 25 25 25 26 26 26 26 27 28 29 29 28 28 29 29 28 29 28 28 29 28 32 32 29 29 27 25 22 21 21 21 21 20 19 19 19 18 19 19 19 19 18 19 18 19 18 18 18
24 24 24 25 25 25 25 26 26 27 28 28 28 28 29 29 29 29 28 28 28 30 30 31 31 30 28 27 25 24 21 21 20 20 19 18 19 18 18 19 19 20 21 19 18 18 18 18 18
22 22 23 23 24 24 24 24 25 26 27 27 27 28 28 29 29 28 28 29 28 28 30 30 30 29 29 29 28 22 21 20 20 20 19 18 18 17 19 19 18 21 21 21 20 19 19 17 18
21 21 22 24 23 24 24 24 28 29 28 27 28 28 28 29 29 29 28 27 28 28 29 30 30 28 28 28 28 23 21 20 20 20 19 17 17 17 18 18 18 21 21 20 18 18 17 17 18
20 21 22 23 25 24 24 25 27 28 28 28 28 28 28 28 28 27 26 26 28 29 29 30 29 27 27 27 24 21 20 19 20 19 18 17 17 16 18 18 19 21 19 18 18 18 17 18 18
20 20 22 23 24 24 24 24 26 27 27 27 28 27 28 28 28 27 27 26 28 29 29 29 28 27 25 23 20 20 20 19 19 18 18 17 17 17 17 16 17 17 17 18 17 17 17 18 17
20 19 21 22 23 24 24 24 25 26 26 26 27 27 27 27 28 27 26 26 26 27 28 29 28 26 24 20 20 20 20 19 18 18 17 17 17 17 16 16 16 17 18 18 19 18 17 17 15
18 18 19 20 21 21 23 23 24 24 24 25 25 26 26 26 27 27 26 25 25 26 27 29 28 28 24 21 20 20 20 18 18 17 17 17 17 17 17 16 16 18 18 18 18 17 15 15 15
18 18 19 19 20 21 21 21 23 24 24 24 25 26 26 26 26 26 26 26 25 25 26 27 27 27 24 21 19 19 18 17 17 17 17 17 17 17 16 17 17 17 18 18 19 16 15 17 15
17 19 19 19 19 20 21 21 24 24 24 24 24 25 25 26 26 26 26 26 25 25 24 26 26 26 22 19 20 20 22 20 19 17 17 17 17 17 17 17 17 17 19 19 18 16 16 15 17
17 19 19 19 19 19 20 20 22 24 24 25 25 25 25 26 26 26 26 26 25 24 23 24 23 21 20 19 20 20 21 21 19 19 17 17 17 17 17 17 17 19 19 18 17 15 15 16 17
19 18 18 18 19 17 19 19 22 24 25 25 26 27 26 26 26 25 25 24 23 22 21 20 20 19 18 19 19 20 20 19 19 19 18 18 18 18 17 18 18 18 18 16 16 15 15 15 15
17 17 16 16 16 17 20 19 21 24 24 24 25 26 26 26 26 25 25 25 24 22 21 18 19 19 19 19 19 19 19 19 19 19 19 17 18 18 17 18 17 17 17 17 16 15 15 15 15
17 17 17 16 17 18 20 19 22 24 25 24 25 25 25 25 26 25 24 23 23 21 19 18 20 19 19 19 19 19 19 20 20 20 19 19 20 19 18 17 17 17 17 16 16 16 16 15 15
17 16 19 17 18 19 20 21 23 23 24 25 25 25 25 25 24 24 22 21 21 19 18 20 20 19 19 19 18 19 19 19 19 18 18 18 18 18 17 17 17 17 16 16 15 16 16 15 15
16 19 16 17 17 17 20 20 22 23 24 24 24 24 24 23 22 21 20 20 19 18 19 19 19 19 19 19 19 19 19 18 18 18 18 18 18 17 17 17 16 16 16 16 16 16 15 15 15
14 14 18 18 18 18 19 21 22 22 22 22 23 23 23 21 21 19 19 19 18 19 19 19 19 19 19 19 18 18 18 18 18 18 18 17 17 17 17 17 17 17 17 16 16 16 16 15 15
15 15 16 17 17 18 18 20 22 21 21 21 22 23 23 19 18 18 18 18 19 20 20 19 19 20 19 19 19 18 18 18 18 18 17 17 17 17 17 17 17 17 17 16 16 16 15 15 15